Location: Casilda
(33.0440°S, 61.1680°W)
Time: 09:00:57
(UTC-03:00)

ISS - Pass Details

Date: 15 August 2022
Orbit: 412 x 420 km, 51.6° (Epoch: 13 August)

Event Time Altitude Azimuth Distance (km) Brightness Sun altitude
Rises 20:42:27 0° 297° (WNW) 2,357 1.0 -26.9°
Reaches altitude 10° 20:44:39 10° 287° (WNW) 1,501 -0.1 -27.4°
Enters shadow 20:46:15 23° 269° (W) 956 -1.3 -27.7°
